When you browse on this site, cookies collect data to enhance your experience and personalize the content and advertising you see.
Visit our Privacy Policy to learn more. By continuing to use the site, you agree to this use of cookies and data.
  • în România
  • Lista ţărilor
  • Pe 7 zile
  • Temperatura apei
  • Hartă satelitară
  • Meteo pe hartă
  • Widget-uri
  • user-avatar
    Intrare

    Meteo pe oră la Arontorp

    Astăzi, 19 Iulie, Vineri

    Timp Temperatura Precipitaţii Vânt Presiune Umiditate
    00:00 +14°C° 0 mm 2 m/s 756 mmHg 88%
    01:00 +14°C° 0 mm 2 m/s 756 mmHg 90%
    02:00 +14°C° 0 mm 2 m/s 756 mmHg 90%
    03:00 +14°C° 0 mm 2 m/s 756 mmHg 91%
    04:00 +14°C° 0 mm 2 m/s 756 mmHg 92%
    05:00 +15°C° 0 mm 2 m/s 756 mmHg 83%
    06:00 +18°C° 0 mm 1 m/s 756 mmHg 74%
    07:00 +20°C° 0 mm 1 m/s 756 mmHg 63%
    08:00 +22°C° 0 mm 1 m/s 756 mmHg 58%
    09:00 +23°C° 0 mm 1 m/s 756 mmHg 52%
    10:00 +25°C° 0 mm 1 m/s 756 mmHg 47%
    11:00 +25°C° 0 mm 2 m/s 756 mmHg 47%
    12:00 +25°C° 0 mm 3 m/s 756 mmHg 47%
    13:00 +25°C° 0 mm 4 m/s 756 mmHg 47%
    14:00 +25°C° 0 mm 4 m/s 756 mmHg 47%
    15:00 +25°C° 0 mm 4 m/s 756 mmHg 47%
    16:00 +25°C° 0 mm 4 m/s 756 mmHg 47%
    17:00 +22°C° 0 mm 4 m/s 756 mmHg 52%
    18:00 +21°C° 0 mm 4 m/s 756 mmHg 57%
    19:00 +20°C° 0 mm 4 m/s 756 mmHg 63%
    20:00 +19°C° 0 mm 3 m/s 756 mmHg 68%
    21:00 +17°C° 0 mm 3 m/s 756 mmHg 74%
    22:00 +16°C° 0 mm 3 m/s 757 mmHg 80%
    23:00 +15°C° 0 mm 2 m/s 757 mmHg 81%

    Mâine, 20 Iulie, Sâmbătă

    Timp Temperatura Precipitaţii Vânt Presiune Umiditate
    00:00 +15°C° 0 mm 2 m/s 757 mmHg 82%
    01:00 +14°C° 0 mm 2 m/s 757 mmHg 83%
    02:00 +14°C° 0 mm 1 m/s 757 mmHg 83%
    03:00 +14°C° 0 mm 1 m/s 757 mmHg 84%
    04:00 +14°C° 0 mm 1 m/s 757 mmHg 84%
    05:00 +16°C° 0 mm 1 m/s 757 mmHg 77%
    06:00 +19°C° 0 mm 1 m/s 757 mmHg 70%
    07:00 +19°C° 0 mm 2 m/s 757 mmHg 62%
    08:00 +20°C° 0 mm 2 m/s 758 mmHg 59%
    09:00 +21°C° 0 mm 3 m/s 758 mmHg 55%
    10:00 +22°C° 0 mm 3 m/s 758 mmHg 52%
    11:00 +22°C° 0 mm 3 m/s 758 mmHg 50%
    12:00 +23°C° 0 mm 4 m/s 758 mmHg 48%
    13:00 +23°C° 0 mm 4 m/s 758 mmHg 47%
    14:00 +23°C° 0 mm 4 m/s 758 mmHg 48%
    15:00 +22°C° 0 mm 4 m/s 758 mmHg 50%
    16:00 +22°C° 0 mm 4 m/s 758 mmHg 51%
    17:00 +21°C° 0 mm 4 m/s 758 mmHg 58%
    18:00 +20°C° 0 mm 4 m/s 757 mmHg 65%
    19:00 +19°C° 0 mm 4 m/s 757 mmHg 72%
    20:00 +18°C° 0 mm 3 m/s 757 mmHg 79%
    21:00 +17°C° 0 mm 3 m/s 758 mmHg 85%
    22:00 +16°C° 0 mm 3 m/s 758 mmHg 92%
    23:00 +16°C° 0 mm 3 m/s 757 mmHg 93%

    Poimâine, 21 Iulie, Duminică

    Timp Temperatura Precipitaţii Vânt Presiune Umiditate
    00:00 +16°C° 0 mm 3 m/s 757 mmHg 93%
    01:00 +16°C° 0 mm 3 m/s 757 mmHg 94%
    02:00 +16°C° 0 mm 3 m/s 756 mmHg 94%
    03:00 +16°C° 0 mm 3 m/s 756 mmHg 93%
    04:00 +17°C° 0 mm 3 m/s 756 mmHg 93%
    05:00 +18°C° 0 mm 3 m/s 755 mmHg 89%
    06:00 +19°C° 0 mm 3 m/s 755 mmHg 85%
    07:00 +20°C° 0 mm 3 m/s 755 mmHg 81%
    08:00 +20°C° 1 mm 3 m/s 755 mmHg 85%
    09:00 +19°C° 1 mm 4 m/s 755 mmHg 90%
    10:00 +19°C° 1 mm 4 m/s 755 mmHg 95%
    11:00 +19°C° 0.4 mm 4 m/s 755 mmHg 91%
    12:00 +20°C° 0.4 mm 4 m/s 755 mmHg 87%
    13:00 +21°C° 0.4 mm 4 m/s 755 mmHg 84%
    14:00 +22°C° 0.5 mm 4 m/s 755 mmHg 81%
    15:00 +22°C° 0.5 mm 4 m/s 755 mmHg 78%
    16:00 +23°C° 0.5 mm 4 m/s 755 mmHg 76%
    17:00 +22°C° 0.9 mm 4 m/s 755 mmHg 77%
    18:00 +22°C° 0.9 mm 4 m/s 755 mmHg 79%
    19:00 +21°C° 0.9 mm 4 m/s 755 mmHg 81%
    20:00 +20°C° 0 mm 4 m/s 756 mmHg 84%
    21:00 +18°C° 0 mm 4 m/s 756 mmHg 87%
    22:00 +17°C° 0 mm 4 m/s 756 mmHg 90%
    23:00 +17°C° 0 mm 4 m/s 756 mmHg 90%

    22 Iulie, Luni

    Timp Temperatura Precipitaţii Vânt Presiune Umiditate
    00:00 +16°C° 0 mm 5 m/s 757 mmHg 91%
    01:00 +15°C° 0 mm 5 m/s 757 mmHg 91%
    02:00 +15°C° 0 mm 6 m/s 757 mmHg 89%
    03:00 +15°C° 0 mm 6 m/s 757 mmHg 87%
    04:00 +14°C° 0 mm 6 m/s 758 mmHg 85%
    05:00 +15°C° 0 mm 6 m/s 758 mmHg 80%
    06:00 +16°C° 0 mm 6 m/s 758 mmHg 74%
    07:00 +16°C° 0 mm 6 m/s 758 mmHg 68%
    08:00 +19°C° 0 mm 5 m/s 758 mmHg 63%
    09:00 +20°C° 0 mm 5 m/s 759 mmHg 57%
    10:00 +22°C° 0 mm 5 m/s 759 mmHg 51%
    11:00 +23°C° 0 mm 5 m/s 759 mmHg 48%
    12:00 +25°C° 0 mm 5 m/s 759 mmHg 45%
    13:00 +26°C° 0 mm 5 m/s 759 mmHg 42%
    14:00 +26°C° 0 mm 5 m/s 759 mmHg 43%
    15:00 +25°C° 0 mm 5 m/s 759 mmHg 43%
    16:00 +24°C° 0 mm 6 m/s 759 mmHg 43%
    17:00 +23°C° 0 mm 5 m/s 759 mmHg 48%
    18:00 +22°C° 0 mm 5 m/s 759 mmHg 53%
    19:00 +21°C° 0 mm 4 m/s 759 mmHg 58%
    20:00 +20°C° 0 mm 4 m/s 759 mmHg 65%
    21:00 +19°C° 0 mm 4 m/s 760 mmHg 71%
    22:00 +18°C° 0 mm 4 m/s 760 mmHg 78%
    23:00 +18°C° 0 mm 4 m/s 760 mmHg 81%

    23 Iulie, Marţi

    Timp Temperatura Precipitaţii Vânt Presiune Umiditate
    00:00 +17°C° 0 mm 4 m/s 760 mmHg 85%
    01:00 +15°C° 0 mm 4 m/s 760 mmHg 89%
    02:00 +15°C° 0 mm 4 m/s 760 mmHg 90%
    03:00 +16°C° 0 mm 3 m/s 760 mmHg 91%
    04:00 +16°C° 0 mm 3 m/s 760 mmHg 92%
    05:00 +17°C° 0.3 mm 3 m/s 760 mmHg 93%
    06:00 +17°C° 0.3 mm 3 m/s 759 mmHg 93%
    07:00 +17°C° 0.3 mm 3 m/s 759 mmHg 94%
    08:00 +18°C° 0.3 mm 3 m/s 759 mmHg 89%
    09:00 +19°C° 0.3 mm 3 m/s 759 mmHg 85%
    10:00 +21°C° 0.3 mm 3 m/s 759 mmHg 81%
    11:00 +21°C° 0 mm 3 m/s 759 mmHg 78%
    12:00 +22°C° 0 mm 3 m/s 759 mmHg 74%
    13:00 +22°C° 0 mm 4 m/s 759 mmHg 71%
    14:00 +24°C° 0 mm 3 m/s 758 mmHg 67%
    15:00 +26°C° 0 mm 3 m/s 758 mmHg 62%
    16:00 +27°C° 0 mm 2 m/s 758 mmHg 57%
    17:00 +26°C° 0 mm 2 m/s 758 mmHg 61%
    18:00 +25°C° 0 mm 3 m/s 758 mmHg 64%
    19:00 +25°C° 0 mm 3 m/s 758 mmHg 68%
    20:00 +24°C° 0 mm 3 m/s 758 mmHg 69%
    21:00 +22°C° 0 mm 3 m/s 758 mmHg 70%
    22:00 +21°C° 0 mm 3 m/s 758 mmHg 72%
    23:00 +21°C° 0 mm 3 m/s 758 mmHg 75%

    24 Iulie, Miercuri

    Timp Temperatura Precipitaţii Vânt Presiune Umiditate
    00:00 +20°C° 0 mm 3 m/s 758 mmHg 78%
    01:00 +19°C° 0 mm 4 m/s 758 mmHg 81%
    02:00 +19°C° 0 mm 3 m/s 758 mmHg 84%
    03:00 +18°C° 0 mm 3 m/s 758 mmHg 87%
    04:00 +17°C° 0 mm 3 m/s 758 mmHg 89%
    05:00 +19°C° 0 mm 3 m/s 759 mmHg 83%
    06:00 +20°C° 0 mm 2 m/s 759 mmHg 76%
    07:00 +23°C° 0 mm 2 m/s 759 mmHg 70%
    08:00 +25°C° 0 mm 1 m/s 759 mmHg 63%
    09:00 +27°C° 0 mm 1 m/s 759 mmHg 56%
    10:00 +29°C° 0 mm 1 m/s 759 mmHg 50%
    11:00 +29°C° 0 mm 2 m/s 759 mmHg 49%
    12:00 +29°C° 0 mm 3 m/s 759 mmHg 48%
    13:00 +29°C° 0 mm 5 m/s 759 mmHg 48%
    14:00 +29°C° 0 mm 5 m/s 759 mmHg 46%
    15:00 +29°C° 0 mm 5 m/s 759 mmHg 45%
    16:00 +29°C° 0 mm 5 m/s 758 mmHg 43%
    17:00 +29°C° 0 mm 5 m/s 758 mmHg 45%
    18:00 +28°C° 0 mm 5 m/s 758 mmHg 47%
    19:00 +27°C° 0 mm 4 m/s 758 mmHg 49%
    20:00 +26°C° 0 mm 4 m/s 758 mmHg 55%
    21:00 +23°C° 0 mm 4 m/s 759 mmHg 62%
    22:00 +21°C° 0 mm 4 m/s 759 mmHg 68%
    23:00 +21°C° 0 mm 4 m/s 759 mmHg 71%
    Arată mai mult